Weather History for Jamestown, ND

Change the Weather History Date:

Wednesday, April 16, 2014

  Actual Average Record
Temperature  
Mean Temperature 33 °F 43 °F  
Max Temperature 40 °F 56 °F 83 °F (1981)
Min Temperature 25 °F 30 °F 5 °F (1910)
Degree Days  
Heating Degree Days 32 22  
Month to date heating degree days 488 416  
Since 1 July heating degree days 9027 8336  
Cooling Degree Days 0 0  
Month to date cooling degree days 0 0  
Year to date cooling degree days 0 0  
Moisture  
Dew Point 21 °F    
Average Humidity 66    
Maximum Humidity 92    
Minimum Humidity 40    
Precipitation  
Precipitation 0.00 in 0.04 in 0.45 in (1976)
Month to date precipitation 0.11 0.53  
Year to date precipitation 0.66 2.22  
Sea Level Pressure  
Sea Level Pressure 30.07 in    
Wind  
Wind Speed 18 mph (NE)    
Max Wind Speed 25 mph    
Max Gust Speed 32 mph    
Visibility 10 miles    
Events      
T = Trace of Precipitation, MM = Missing Value Source: NWS Daily Summary

Daily Weather History Graph

Daily Weather History Graph

Search for Another Location

Airport:

Trip Planner

Search our weather history database for the weather conditions in past years. The results will help you decide how hot, cold, wet, or windy it might be!

Date:

Astronomy

Apr. 16, 2014 Rise Set
Actual Time 6:45 AM CDT 8:24 PM CDT
Civil Twilight 6:13 AM CDT 8:56 PM CDT
Nautical Twilight 5:34 AM CDT 9:35 PM CDT
Astronomical Twilight 4:51 AM CDT 10:18 PM CDT
Moon 10:15 PM CDT (4/16) 7:29 AM CDT (4/16)
Length of Visible Light 14h 43m
Length of Day
13h 39m
Full, 98% of the Moon is Illuminated
Apr 16
Full
Apr 22
Last Quarter
Apr 29
New
May 6
First Quarter
May 14
Full

Hourly Weather History & Observations

Time (CDT) Temp. Windchill Dew Point Humidity Pressure Visibility Wind Dir Wind Speed Gust Speed Precip Events Conditions
12:56 AM 27.0 °F 13.2 °F 23.0 °F 85% 29.92 in 10.0 mi East 20.7 mph 31.1 mph N/A   Overcast
1:56 AM 27.0 °F 12.8 °F 23.0 °F 85% 29.91 in 10.0 mi East 21.9 mph 29.9 mph N/A   Overcast
2:19 AM 27.0 °F 13.2 °F 24.1 °F 89% 29.85 in 10.0 mi East 20.7 mph - N/A   Overcast
2:56 AM 27.0 °F 14.3 °F 24.1 °F 89% 29.91 in 10.0 mi East 17.3 mph 26.5 mph N/A   Overcast
3:56 AM 27.0 °F 13.2 °F 25.0 °F 92% 29.93 in 10.0 mi East 20.7 mph 28.8 mph N/A   Overcast
4:06 AM 27.0 °F 12.5 °F 24.1 °F 89% 29.88 in 10.0 mi East 23.0 mph 28.8 mph N/A   Overcast
4:56 AM 27.0 °F 12.8 °F 24.1 °F 89% 29.94 in 10.0 mi East 21.9 mph 29.9 mph N/A   Overcast
5:56 AM 27.0 °F 12.5 °F 24.1 °F 89% 29.95 in 10.0 mi East 23.0 mph 28.8 mph N/A   Overcast
6:39 AM 27.0 °F 13.9 °F 24.1 °F 89% 29.91 in 10.0 mi ENE 18.4 mph 28.8 mph N/A   Overcast
6:56 AM 26.1 °F 12.3 °F 24.1 °F 92% 29.99 in 10.0 mi ENE 19.6 mph 27.6 mph N/A   Overcast
7:41 AM 26.1 °F 12.0 °F 23.0 °F 88% 29.96 in 10.0 mi ENE 20.7 mph 29.9 mph N/A   Overcast
7:56 AM 26.1 °F 12.3 °F 23.0 °F 88% 30.03 in 10.0 mi ENE 19.6 mph 28.8 mph N/A   Overcast
8:56 AM 26.1 °F 11.6 °F 23.0 °F 88% 30.05 in 10.0 mi ENE 21.9 mph 27.6 mph N/A   Overcast
9:35 AM 26.1 °F 11.6 °F 21.0 °F 81% 29.99 in 10.0 mi ENE 21.9 mph - N/A   Overcast
9:56 AM 27.0 °F 12.8 °F 21.0 °F 78% 30.06 in 10.0 mi ENE 21.9 mph - N/A   Overcast
10:56 AM 28.0 °F 14.9 °F 21.0 °F 75% 30.08 in 10.0 mi ENE 19.6 mph - N/A   Overcast
11:56 AM 28.0 °F 15.3 °F 21.0 °F 75% 30.11 in 10.0 mi ENE 18.4 mph 25.3 mph N/A   Overcast
12:56 PM 30.9 °F 19.4 °F 19.9 °F 64% 30.12 in 10.0 mi NE 17.3 mph - N/A   Overcast
1:23 PM 32.0 °F 20.8 °F 19.9 °F 61% 30.06 in 10.0 mi NE 17.3 mph - N/A   Overcast
1:40 PM 32.0 °F 20.5 °F 19.9 °F 61% 30.06 in 10.0 mi NE 18.4 mph 25.3 mph N/A   Overcast
1:54 PM 32.0 °F 20.8 °F 19.4 °F 60% 30.07 in 10.0 mi NE 17.3 mph 24.2 mph N/A   Overcast
1:56 PM 32.0 °F 19.8 °F 19.9 °F 61% 30.13 in 10.0 mi NE 20.7 mph - N/A   Overcast
2:56 PM 35.1 °F 24.8 °F 19.0 °F 52% 30.14 in 10.0 mi NE 17.3 mph - N/A   Overcast
3:56 PM 37.9 °F 27.3 °F 19.0 °F 47% 30.16 in 10.0 mi NE 21.9 mph 27.6 mph N/A   Mostly Cloudy
4:56 PM 39.0 °F 30.3 °F 18.0 °F 43% 30.17 in 10.0 mi NE 16.1 mph 25.3 mph N/A   Mostly Cloudy
5:56 PM 39.0 °F 29.6 °F 17.1 °F 41% 30.19 in 10.0 mi NE 18.4 mph - N/A   Partly Cloudy
6:56 PM 37.9 °F 28.5 °F 16.0 °F 41% 30.21 in 10.0 mi NE 17.3 mph - N/A   Clear
7:56 PM 34.0 °F 25.0 °F 18.0 °F 52% 30.24 in 10.0 mi NNE 12.7 mph - N/A   Clear
8:56 PM 30.9 °F 21.2 °F 18.0 °F 59% 30.27 in 10.0 mi NNE 12.7 mph - N/A   Clear
9:56 PM 28.9 °F 19.2 °F 19.0 °F 67% 30.30 in 10.0 mi NNE 11.5 mph - N/A   Clear
10:56 PM 27.0 °F 18.0 °F 16.0 °F 63% 30.31 in 10.0 mi NNE 9.2 mph - N/A   Clear
11:56 PM 26.1 °F 16.2 °F 19.0 °F 75% 30.32 in 10.0 mi NNE 10.4 mph - N/A   Clear